Weather History for Big Rapids, MI

Change the Weather History Date:

Wednesday, May 21, 2014

  Actual Average Record
Temperature  
Mean Temperature 68 °F -  
Max Temperature 81 °F 72 °F 89 °F (1987)
Min Temperature 55 °F 44 °F 30 °F (2003)
Cooling Degree Days 3    
Growing Degree Days 18 (Base 50)    
Moisture  
Dew Point 52 °F    
Average Humidity 66    
Maximum Humidity 100    
Minimum Humidity 25    
Precipitation  
Precipitation 0.00 in - - ()
Sea Level Pressure  
Sea Level Pressure 29.85 in    
Wind  
Wind Speed 4 mph (WNW)    
Max Wind Speed 18 mph    
Max Gust Speed 29 mph    
Visibility 10 miles    
Events      
Averages and records for this station are not official NWS values.
T = Trace of Precipitation, MM = Missing Value Source: NWS Daily Summary

Daily Weather History Graph

Daily Weather History Graph

Search for Another Location

Airport:

Trip Planner

Search our weather history database for the weather conditions in past years. The results will help you decide how hot, cold, wet, or windy it might be!

Date:

Astronomy

May. 21, 2014 Rise Set
Actual Time 6:10 AM EDT 9:06 PM EDT
Civil Twilight 5:36 AM EDT 9:40 PM EDT
Nautical Twilight 4:53 AM EDT 10:24 PM EDT
Astronomical Twilight 4:03 AM EDT 11:15 PM EDT
Moon 2:07 AM EDT (5/21) 1:33 PM EDT (5/21)
Length of Visible Light 16h 03m
Length of Day
14h 56m
Waning Gibbous, 49% of the Moon is Illuminated
May 21
Waning Gibbous
May 28
New
Jun 5
First Quarter
Jun 13
Full
Jun 19
Last Quarter

Hourly Weather History & Observations

Time (EDT) Temp. Dew Point Humidity Pressure Visibility Wind Dir Wind Speed Gust Speed Precip Events Conditions
12:15 AM 59.0 °F 59.0 °F 100% 29.88 in 10.0 mi Calm Calm - N/A   Clear
12:34 AM 58.6 °F 58.6 °F 100% 29.88 in 10.0 mi Calm Calm - N/A   Clear
12:55 AM 58.5 °F 58.5 °F 100% 29.88 in 10.0 mi Calm Calm - N/A   Clear
1:15 AM 57.6 °F 57.6 °F 100% 29.87 in 10.0 mi Calm Calm - N/A   Scattered Clouds
1:35 AM 57.2 °F 57.2 °F 100% 29.85 in 10.0 mi Calm Calm - N/A   Scattered Clouds
1:55 AM 56.5 °F 56.5 °F 100% 29.84 in 10.0 mi Calm Calm - N/A   Clear
2:15 AM 56.5 °F 56.5 °F 100% 29.83 in 10.0 mi NNW 3.5 mph - N/A   Clear
2:35 AM 56.1 °F 56.1 °F 100% 29.86 in 10.0 mi SSW 12.7 mph - N/A   Scattered Clouds
2:55 AM 56.5 °F 56.5 °F 100% 29.86 in 10.0 mi ESE 8.1 mph - N/A   Overcast
3:14 AM 57.0 °F 57.0 °F 100% 29.85 in 10.0 mi Calm Calm - N/A   Overcast
3:35 AM 56.7 °F 56.7 °F 100% 29.85 in 10.0 mi SE 3.5 mph - N/A   Overcast
3:55 AM 55.9 °F 55.9 °F 100% 29.85 in 10.0 mi Calm Calm - N/A   Overcast
4:15 AM 56.1 °F 56.1 °F 100% 29.83 in 10.0 mi Calm Calm - N/A   Overcast
4:35 AM 56.3 °F 56.3 °F 100% 29.84 in 10.0 mi NNE 4.6 mph - N/A   Overcast
5:15 AM 55.9 °F 55.9 °F 100% 29.86 in 10.0 mi Calm Calm - N/A   Overcast
5:35 AM 55.6 °F 55.6 °F 100% 29.87 in 7.0 mi North 3.5 mph - N/A   Overcast
5:54 AM 55.4 °F 55.4 °F 100% 29.85 in 10.0 mi Calm Calm - N/A   Overcast
6:15 AM 55.4 °F 55.4 °F 100% 29.87 in 7.0 mi Calm Calm - N/A   Overcast
6:35 AM 56.3 °F 56.3 °F 100% 29.87 in 10.0 mi Calm Calm - N/A   Overcast
6:54 AM 55.8 °F 55.8 °F 100% 29.86 in 7.0 mi Calm Calm - N/A   Overcast
7:15 AM 55.9 °F 55.9 °F 100% 29.86 in 7.0 mi Calm Calm - N/A   Overcast
7:35 AM 56.3 °F 56.3 °F 100% 29.87 in 10.0 mi South 5.8 mph - N/A   Overcast
7:55 AM 56.8 °F 56.8 °F 100% 29.87 in 10.0 mi NE 3.5 mph - N/A   Overcast
8:15 AM 57.6 °F 57.6 °F 100% 29.87 in 10.0 mi Calm Calm - N/A   Overcast
8:35 AM 58.1 °F 57.9 °F 99% 29.87 in 10.0 mi Calm Calm - N/A   Overcast
8:55 AM 59.9 °F 58.8 °F 96% 29.87 in 10.0 mi Calm Calm - N/A   Scattered Clouds
9:15 AM 61.2 °F 59.4 °F 94% 29.86 in 10.0 mi Calm Calm - N/A   Mostly Cloudy
9:34 AM 63.0 °F 55.8 °F 77% 29.86 in 10.0 mi Calm Calm - N/A   Scattered Clouds
9:55 AM 65.5 °F 57.4 °F 75% 29.86 in 10.0 mi Calm Calm - N/A   Scattered Clouds
11:35 AM 74.5 °F 61.5 °F 64% 29.84 in 10.0 mi WNW 4.6 mph - N/A   Scattered Clouds
11:55 AM 75.0 °F 61.0 °F 62% 29.85 in 10.0 mi SW 8.1 mph - N/A   Scattered Clouds
12:15 PM 74.7 °F 59.5 °F 59% 29.85 in 10.0 mi WNW 9.2 mph - N/A   Mostly Cloudy
12:35 PM 77.0 °F 59.2 °F 54% 29.85 in 10.0 mi West 9.2 mph - N/A   Scattered Clouds
12:55 PM 78.3 °F 55.8 °F 46% 29.85 in 10.0 mi West 11.5 mph - N/A   Clear
1:15 PM 79.0 °F 50.7 °F 37% 29.84 in 10.0 mi West 8.1 mph - N/A   Clear
1:35 PM 79.5 °F 50.5 °F 36% 29.84 in 10.0 mi WNW 8.1 mph 17.3 mph N/A   Scattered Clouds
2:14 PM 80.2 °F 48.6 °F 33% 29.84 in 10.0 mi West 10.4 mph - N/A   Mostly Cloudy
2:35 PM 79.2 °F 45.7 °F 31% 29.84 in 10.0 mi WNW 10.4 mph 16.1 mph N/A   Mostly Cloudy
2:55 PM 80.1 °F 44.2 °F 28% 29.84 in 10.0 mi WNW 11.5 mph 20.7 mph N/A   Mostly Cloudy
3:14 PM 81.3 °F 44.1 °F 27% 29.84 in 10.0 mi West 16.1 mph 24.2 mph N/A   Scattered Clouds
3:35 PM 81.5 °F 43.5 °F 26% 29.84 in 10.0 mi NW 11.5 mph 19.6 mph N/A   Clear
3:55 PM 81.9 °F 42.8 °F 25% 29.84 in 10.0 mi WNW 9.2 mph - N/A   Clear
4:15 PM 81.5 °F 42.6 °F 25% 29.83 in 10.0 mi West 18.4 mph 24.2 mph N/A   Clear
4:35 PM 81.0 °F 41.7 °F 25% 29.83 in 10.0 mi West 17.3 mph 21.9 mph N/A   Clear
4:54 PM 81.0 °F 42.3 °F 25% 29.83 in 10.0 mi West 17.3 mph 28.8 mph N/A   Clear
5:15 PM 81.0 °F 43.7 °F 27% 29.83 in 10.0 mi West 16.1 mph 25.3 mph N/A   Clear
5:35 PM 80.4 °F 45.1 °F 29% 29.83 in 10.0 mi West 17.3 mph 25.3 mph N/A   Clear
5:54 PM 80.1 °F 45.5 °F 30% 29.83 in 10.0 mi WNW 18.4 mph 23.0 mph N/A   Scattered Clouds
6:15 PM 79.7 °F 45.9 °F 30% 29.82 in 10.0 mi West 12.7 mph 25.3 mph N/A   Scattered Clouds
6:35 PM 78.3 °F 47.5 °F 34% 29.82 in 10.0 mi WNW 11.5 mph 21.9 mph N/A   Scattered Clouds
6:54 PM 78.1 °F 48.6 °F 35% 29.82 in 10.0 mi WNW 9.2 mph - N/A   Scattered Clouds
7:15 PM 76.6 °F 48.6 °F 37% 29.82 in 10.0 mi WNW 10.4 mph 18.4 mph N/A   Scattered Clouds
7:35 PM 76.3 °F 47.8 °F 37% 29.83 in 10.0 mi WNW 11.5 mph 21.9 mph N/A   Scattered Clouds
7:54 PM 75.7 °F 46.9 °F 36% 29.84 in 10.0 mi NW 10.4 mph 21.9 mph N/A   Scattered Clouds
8:15 PM 73.9 °F 45.9 °F 37% 29.84 in 10.0 mi WNW 11.5 mph 18.4 mph N/A   Scattered Clouds
8:35 PM 72.9 °F 44.8 °F 37% 29.84 in 10.0 mi WNW 9.2 mph - N/A   Clear
8:55 PM 71.6 °F 44.6 °F 38% 29.85 in 10.0 mi WNW 8.1 mph - N/A   Clear
9:15 PM 70.2 °F 44.2 °F 39% 29.85 in 10.0 mi WNW 5.8 mph - N/A   Clear
9:34 PM 68.2 °F 45.1 °F 43% 29.85 in 10.0 mi West 5.8 mph - N/A   Clear
9:55 PM 67.1 °F 45.9 °F 46% 29.86 in 10.0 mi WNW 4.6 mph - N/A   Clear
10:15 PM 66.4 °F 46.8 °F 49% 29.87 in 10.0 mi WNW 5.8 mph - N/A   Clear
10:34 PM 65.3 °F 48.7 °F 55% 29.88 in 10.0 mi NNW 12.7 mph - N/A   Clear
10:55 PM 62.4 °F 52.2 °F 69% 29.89 in 10.0 mi NNW 9.2 mph - N/A   Clear
11:15 PM 60.4 °F 51.8 °F 73% 29.90 in 10.0 mi North 9.2 mph 16.1 mph N/A   Clear
11:34 PM 59.0 °F 51.8 °F 77% 29.91 in 10.0 mi North 6.9 mph - N/A   Clear
11:55 PM 58.3 °F 51.6 °F 78% 29.92 in 10.0 mi North 6.9 mph - N/A   Clear